Regional Weather Roundup
Issued by NWS

Home | Current Version | Previous Version | Text Only | Print | Product List | Glossary Off
Versions: 1 2 3 4 5 6 7 8 9 10 11 12 13 14 15 16 17 18 19 20 21 22 23 24 25 26 27 28 29 30 31 32 33 34 35 36 37 38 39 40 41 42 43 44 45 46 47 48 49 50

236
ASUS43 KIND 292359
RWRIN

WEATHER ROUNDUP FOR INDIANA
NATIONAL WEATHER SERVICE INDIANAPOLIS IN
800 PM EDT FRI JUL 29 2016

NOTE: "FAIR" INDICATES FEW OR NO CLOUDS BELOW 12,000 FEET WITH NO
SIGNIFICANT WEATHER AND/OR OBSTRUCTIONS TO VISIBILITY.

* - STATION DOES NOT REPORT WEATHER SUCH AS PRECIPITATION OR FOG.

+ - STATION NOT QUALITY CONTROLLED BY THE NATIONAL WEATHER SERVICE.
    USE DATA WITH CAUTION...ESPECIALLY DEWPOINT AND RELATIVE
    HUMIDITY OBSERVATIONS.

INZ001>003-010>013-019-020-300100-
NORTHWEST INDIANA

CITY           SKY/WX    TMP DP  RH WIND       PRES   REMARKS
GARY /AIRPORT/ PTSUNNY   72  72 100 CALM      29.92S
KNOX *+        CLOUDY    72  61  68 N5        29.93R
MONTICELLO +   MOSUNNY   78  66  68 NE5       29.90R
6HR MIN TEMP:  76; 6HR MAX TEMP:  84;

RENSSELAER +   SUNNY     73  68  83 N5        29.91S

$$

LMZ046-743>745-300100-
SOUTHERN LAKE MICHIGAN

STATION/POSITION TIME  TEMP    WIND        PRES    WAVE
                       AIR SEA DIR/SP/G            HT
                 (UTC) (F)     (DEG/KT/KT) (MB)    (FT)
BURNS HARBOR     2302   71      20/  3/ 12 1013.9S
MICHIGAN CITY    2300   71     330/  6/  7   N/A
5NW MICH CITY    2300   71 77  350/  8/ 10   N/A     2

$$

INZ004-005-014>016-021>024-300100-
NORTH CENTRAL INDIANA

CITY           SKY/WX    TMP DP  RH WIND       PRES   REMARKS
ELKHART        CLOUDY    75  68  78 NE6       29.95R
GOSHEN         CLOUDY    76  67  73 NE6       29.94R
6HR MIN TEMP:  75; 6HR MAX TEMP:  83;

SOUTH BEND     CLOUDY    72  69  90 N8        29.95R
6HR MIN TEMP:  71; 6HR MAX TEMP:  82; 6HR PCP:  0.14;

WARSAW +       PTSUNNY   75  70  83 E5        29.93R

$$

INZ006>009-017-018-025>027-300100-
NORTHEAST INDIANA

CITY           SKY/WX    TMP DP  RH WIND       PRES   REMARKS
ANGOLA *+      CLEAR     75  70  83 E8        29.93R
FORT WAYNE     RAIN      70  68  93 VRB6      29.94R FOG
6HR MIN TEMP:  70; 6HR MAX TEMP:  89; 6HR PCP:  0.35;


$$

INZ028-029-035-036-043>045-051>053-300100-
WEST CENTRAL INDIANA

CITY           SKY/WX    TMP DP  RH WIND       PRES   REMARKS
CRAWFORDSVL +  SUNNY     77  72  83 CALM      29.90S
6HR MIN TEMP:  74; 6HR MAX TEMP:  83; 6HR PCP:  0.04;

GREENCASTLE +  SUNNY     77  72  83 W3        29.91S
LAFAYETTE      MOSUNNY   79  71  76 N10       29.90R
6HR MIN TEMP:  79; 6HR MAX TEMP:  85;

TERRE HAUTE    MOSUNNY   81  69  67 W5        29.89S
6HR MIN TEMP:  74; 6HR MAX TEMP:  84; 6HR PCP:  0.08;


$$

INZ030>032-037>040-046>048-054>057-064-065-300100-
CENTRAL INDIANA

CITY           SKY/WX    TMP DP  RH WIND       PRES   REMARKS
COLUMBUS       CLEAR     77  73  88 W5        29.91R
INDIANAPOLIS   PTSUNNY   80  70  71 N6        29.91R
6HR MIN TEMP:  78; 6HR MAX TEMP:  87; 6HR PCP:  0.16;

-EAGLE CREEK   PTSUNNY   81  66  60 NE6       29.90R
6HR MIN TEMP:  76; 6HR MAX TEMP:  89; 6HR PCP:  0.13;

KOKOMO *+      CLOUDY    73  66  78 SE5       29.93R
6HR MIN TEMP:  70; 6HR MAX TEMP:  82; 6HR PCP:  0.57;

SHELBYVILLE    PTCLDY    81  69  67 CALM      29.90R
6HR MIN TEMP:  81; 6HR MAX TEMP:  85; 6HR PCP: TRACE;

ZIONSVILLE +   PTSUNNY   72  70  93 E7        29.93S
6HR MIN TEMP:  71; 6HR MAX TEMP:  84;


$$

INZ033-034-041-042-049-050-058-059-300100-
EAST CENTRAL INDIANA

CITY           SKY/WX    TMP DP  RH WIND       PRES   REMARKS
MUNCIE         LGT RAIN  74  68  81 N8        29.94R
6HR MIN TEMP:  74; 6HR MAX TEMP:  85; 6HR PCP:  0.02;


$$

INZ060-061-067>069-081>083-085>088-300100-
SOUTHWEST INDIANA

CITY           SKY/WX    TMP DP  RH WIND       PRES   REMARKS
EVANSVILLE     CLOUDY    77  71  82 W5        29.91R
6HR MIN TEMP:  72; 6HR MAX TEMP:  86; 6HR PCP:  0.18;

HUNTINGBURG *+ PTSUNNY   75  72  88 CALM      29.91S
6HR MIN TEMP:  75; 6HR MAX TEMP:  86;


$$

INZ062-063-066-070>080-084-089>092-300100-
SOUTH CENTRAL AND SOUTHEAST INDIANA

CITY           SKY/WX    TMP DP  RH WIND       PRES   REMARKS
BLOOMINGTON    MOSUNNY   77  69  76 CALM      29.91R
6HR MIN TEMP:  74; 6HR MAX TEMP:  84; 6HR PCP:  0.02;

MADISON *+     CLOUDY    73  68  83 S5        29.93F
SEYMOUR +      CLOUDY    82  73  74 CALM      29.90R

$$





USA.gov is the U.S. government's official web portal to all federal, state and local government web resources and services.